,,,PA_Meas_PMT16A,,PR_Meas_QMR101_102,,RH_Meas_QMH101,,SR_Meas_QMS101,,TA_Meas_QMH101,,GenWind,,GenWind,
date,time,status,PA,status,PR,status,RH,status,SR,status,TA,status,DirAvg,status,SpdAvg,
2009-11-04, 00:00:04,VALID,1005.17,VALID,0,VALID,92.935,VALID,0,VALID,24.3265,VALID,56,VALID,0.463281,
2009-11-04, 00:01:04,VALID,1005.15,VALID,0,VALID,92.8892,VALID,0,VALID,24.3052,VALID,56,VALID,0.339453,
2009-11-04, 00:02:04,VALID,1005.15,VALID,0,VALID,92.8892,VALID,0,VALID,24.2857,VALID,56,VALID,0.2375,
2009-11-04, 00:03:04,VALID,1005.15,VALID,0,VALID,92.9426,VALID,0,VALID,24.2875,VALID,56,VALID,0,
2009-11-04, 00:04:04,VALID,1005.17,VALID,0,VALID,92.9045,VALID,0,VALID,24.2875,VALID,56,VALID,0,
2009-11-04, 00:05:04,VALID,1005.17,VALID,0,VALID,92.9121,VALID,0,VALID,24.2681,VALID,56,VALID,0,
2009-11-04, 00:06:04,VALID,1005.16,VALID,0,VALID,92.9579,VALID,0,VALID,24.2681,VALID,56,VALID,0,
2009-11-04, 00:07:04,VALID,1005.15,VALID,0,VALID,93.0418,VALID,0,VALID,24.2486,VALID,56,VALID,0,
2009-11-04, 00:08:04,VALID,1005.1,VALID,0,VALID,93.1257,VALID,0,VALID,24.2486,VALID,56,VALID,0,
2009-11-04, 00:09:04,VALID,1005.11,VALID,0,VALID,93.1791,VALID,0,VALID,24.2681,VALID,56,VALID,0,
2009-11-04, 00:10:04,VALID,1005.06,VALID,0,VALID,93.1791,VALID,0,VALID,24.2273,VALID,57,VALID,0.280859,
2009-11-04, 00:11:04,VALID,1005.07,VALID,0,VALID,93.2249,VALID,0,VALID,24.2291,VALID,57,VALID,0.352344,
2009-11-04, 00:12:04,VALID,1005.04,VALID,0,VALID,93.1791,VALID,0,VALID,24.2291,VALID,57,VALID,0.31875,
2009-11-04, 00:13:04,VALID,1005.04,VALID,0,VALID,93.202,VALID,0,VALID,24.1884,VALID,57,VALID,0.216016,
2009-11-04, 00:14:04,VALID,1005.05,VALID,0,VALID,93.2707,VALID,0,VALID,24.2097,VALID,57,VALID,0.184766,
2009-11-04, 00:15:04,VALID,1005.03,VALID,0,VALID,93.3317,VALID,0,VALID,24.2078,VALID,57,VALID,0,
2009-11-04, 00:16:04,VALID,1005.04,VALID,0,VALID,93.3622,VALID,0,VALID,24.2078,VALID,57,VALID,0,
2009-11-04, 00:17:04,VALID,1005.05,VALID,0,VALID,93.3775,VALID,0,VALID,24.2097,VALID,57,VALID,0.0371094,
2009-11-04, 00:18:04,VALID,1005.06,VALID,0,VALID,93.4156,VALID,0,VALID,24.1902,VALID,57,VALID,0,
2009-11-04, 00:19:04,VALID,1005.03,VALID,0,VALID,93.4156,VALID,0,VALID,24.1689,VALID,57,VALID,0,
2009-11-04, 00:20:04,VALID,1005.01,VALID,0,VALID,93.4004,VALID,0,VALID,24.1494,VALID,57,VALID,0,
2009-11-04, 00:21:04,VALID,1005,VALID,0,VALID,93.3928,VALID,0,VALID,24.13,VALID,57,VALID,0,
2009-11-04, 00:22:04,VALID,1004.97,VALID,0,VALID,93.4156,VALID,0,VALID,24.1318,VALID,57,VALID,0,
2009-11-04, 00:23:04,VALID,1004.97,VALID,0,VALID,93.4385,VALID,0,VALID,24.1105,VALID,57,VALID,0,
2009-11-04, 00:24:04,VALID,1004.94,VALID,0,VALID,93.4385,VALID,0,VALID,24.1123,VALID,57,VALID,0,
2009-11-04, 00:25:04,VALID,1004.92,VALID,0,VALID,93.408,VALID,0,VALID,24.0734,VALID,57,VALID,0,
2009-11-04, 00:26:04,VALID,1004.89,VALID,0,VALID,93.4156,VALID,0,VALID,24.0539,VALID,57,VALID,0,
2009-11-04, 00:27:04,VALID,1004.91,VALID,0,VALID,93.408,VALID,0,VALID,23.9937,VALID,57,VALID,0,
2009-11-04, 00:28:04,VALID,1004.86,VALID,0,VALID,93.4385,VALID,0,VALID,23.9955,VALID,57,VALID,0,
2009-11-04, 00:29:04,VALID,1004.89,VALID,0,VALID,93.4767,VALID,0,VALID,23.9761,VALID,57,VALID,0,
2009-11-04, 00:30:04,VALID,1004.9,VALID,0,VALID,93.553,VALID,0,VALID,23.9353,VALID,57,VALID,0,
2009-11-04, 00:31:04,VALID,1004.91,VALID,0,VALID,93.5987,VALID,0,VALID,23.9566,VALID,57,VALID,0,
2009-11-04, 00:32:04,VALID,1004.93,VALID,0,VALID,93.6445,VALID,0,VALID,23.9371,VALID,57,VALID,0,
2009-11-04, 00:33:04,VALID,1004.95,VALID,0,VALID,93.7437,VALID,0,VALID,23.9566,VALID,57,VALID,0,
2009-11-04, 00:34:04,VALID,1004.97,VALID,0,VALID,93.8276,VALID,0,VALID,23.9761,VALID,57,VALID,0,
2009-11-04, 00:35:04,VALID,1004.98,VALID,0,VALID,93.9039,VALID,0,VALID,23.9973,VALID,57,VALID,0,
2009-11-04, 00:36:04,VALID,1004.98,VALID,0,VALID,93.9802,VALID,0,VALID,23.9742,VALID,57,VALID,0,
2009-11-04, 00:37:04,VALID,1005,VALID,0,VALID,93.9878,VALID,0,VALID,23.9955,VALID,57,VALID,0,
2009-11-04, 00:38:04,VALID,1004.98,VALID,0,VALID,93.9954,VALID,0,VALID,23.9973,VALID,57,VALID,0,
2009-11-04, 00:39:04,VALID,1005.01,VALID,0,VALID,93.9954,VALID,0,VALID,23.9371,VALID,57,VALID,0,
2009-11-04, 00:40:04,VALID,1004.95,VALID,0,VALID,93.9802,VALID,0,VALID,23.9371,VALID,57,VALID,0,
2009-11-04, 00:41:04,VALID,1004.97,VALID,0,VALID,93.9802,VALID,0,VALID,23.9177,VALID,57,VALID,0,
2009-11-04, 00:42:04,VALID,1004.98,VALID,0,VALID,93.9725,VALID,0,VALID,23.9177,VALID,57,VALID,0,
2009-11-04, 00:43:04,VALID,1004.95,VALID,0,VALID,93.9878,VALID,0,VALID,23.8964,VALID,57,VALID,0,
2009-11-04, 00:44:04,VALID,1004.94,VALID,0,VALID,94.0107,VALID,0.100563,VALID,23.9177,VALID,57,VALID,0,
2009-11-04, 00:45:04,VALID,1004.9,VALID,0,VALID,94.0336,VALID,0,VALID,23.8964,VALID,57,VALID,0,
2009-11-04, 00:46:04,VALID,1004.94,VALID,0,VALID,94.0259,VALID,0,VALID,23.9177,VALID,57,VALID,0,
2009-11-04, 00:47:04,VALID,1004.91,VALID,0,VALID,94.0412,VALID,0,VALID,23.9177,VALID,57,VALID,0,
2009-11-04, 00:48:04,VALID,1004.91,VALID,0,VALID,94.0488,VALID,0,VALID,23.9177,VALID,57,VALID,0,
2009-11-04, 00:49:04,VALID,1004.88,VALID,0,VALID,94.0412,VALID,0,VALID,23.9371,VALID,57,VALID,0,
2009-11-04, 00:50:04,VALID,1004.89,VALID,0,VALID,93.9954,VALID,0,VALID,23.9177,VALID,57,VALID,0,
2009-11-04, 00:51:04,VALID,1004.87,VALID,0,VALID,93.9878,VALID,0,VALID,23.8964,VALID,57,VALID,0,
2009-11-04, 00:52:04,VALID,1004.83,VALID,0,VALID,93.9649,VALID,0,VALID,23.8982,VALID,57,VALID,0,
2009-11-04, 00:53:04,VALID,1004.77,VALID,0,VALID,93.942,VALID,0,VALID,23.8787,VALID,57,VALID,0,
2009-11-04, 00:54:04,VALID,1004.74,VALID,0,VALID,93.9802,VALID,0,VALID,23.8982,VALID,57,VALID,0,
2009-11-04, 00:55:04,VALID,1004.69,VALID,0,VALID,94.0183,VALID,0,VALID,23.8787,VALID,57,VALID,0,
2009-11-04, 00:56:04,VALID,1004.71,VALID,0,VALID,94.0412,VALID,0,VALID,23.8575,VALID,57,VALID,0,
2009-11-04, 00:57:04,VALID,1004.7,VALID,0,VALID,94.087,VALID,0,VALID,23.8982,VALID,57,VALID,0,
2009-11-04, 00:58:04,VALID,1004.67,VALID,0,VALID,94.1251,VALID,0,VALID,23.8769,VALID,57,VALID,0,
2009-11-04, 00:59:04,VALID,1004.72,VALID,0,VALID,94.2014,VALID,0,VALID,23.9177,VALID,57,VALID,0,
2009-11-04, 01:00:04,VALID,1004.72,VALID,0,VALID,94.2548,VALID,0,VALID,23.9159,VALID,57,VALID,0,
2009-11-04, 01:01:04,VALID,1004.73,VALID,0,VALID,94.209,VALID,0,VALID,23.9177,VALID,56,VALID,0.355469,
2009-11-04, 01:02:04,VALID,1004.72,VALID,0,VALID,94.1938,VALID,0,VALID,23.8982,VALID,56,VALID,0.435937,
2009-11-04, 01:03:04,VALID,1004.68,VALID,0,VALID,94.1938,VALID,0,VALID,23.8769,VALID,31,VALID,0.623828,
2009-11-04, 01:04:04,VALID,1004.65,VALID,0,VALID,94.2243,VALID,0,VALID,23.8982,VALID,19,VALID,0.364453,
2009-11-04, 01:05:04,VALID,1004.63,VALID,0,VALID,94.2624,VALID,0,VALID,23.8982,VALID,19,VALID,0.374219,
2009-11-04, 01:06:04,VALID,1004.6,VALID,0,VALID,94.2319,VALID,0,VALID,23.8787,VALID,18,VALID,0.420703,
2009-11-04, 01:07:04,VALID,1004.57,VALID,0,VALID,94.2548,VALID,0,VALID,23.8398,VALID,17,VALID,0.4,
2009-11-04, 01:08:04,VALID,1004.56,VALID,0,VALID,94.2777,VALID,0,VALID,23.8398,VALID,15,VALID,0.35,
2009-11-04, 01:09:04,VALID,1004.55,VALID,0,VALID,94.2701,VALID,0,VALID,23.8203,VALID,15,VALID,0.26875,
2009-11-04, 01:10:04,VALID,1004.53,VALID,0,VALID,94.3158,VALID,0,VALID,23.8203,VALID,15,VALID,0.271094,
2009-11-04, 01:11:04,VALID,1004.52,VALID,0,VALID,94.354,VALID,0,VALID,23.8203,VALID,15,VALID,0.223047,
2009-11-04, 01:12:04,VALID,1004.51,VALID,0,VALID,94.3692,VALID,0,VALID,23.8203,VALID,15,VALID,0.253516,
2009-11-04, 01:13:04,VALID,1004.48,VALID,0,VALID,94.3769,VALID,0,VALID,23.8203,VALID,15,VALID,0.301172,
2009-11-04, 01:14:04,VALID,1004.48,VALID,0,VALID,94.3845,VALID,0,VALID,23.8203,VALID,15,VALID,0.305469,
2009-11-04, 01:15:04,VALID,1004.43,VALID,0,VALID,94.4303,VALID,0,VALID,23.8009,VALID,15,VALID,0.31875,
2009-11-04, 01:16:04,VALID,1004.39,VALID,0,VALID,94.4532,VALID,0,VALID,23.8009,VALID,15,VALID,0.256641,
2009-11-04, 01:17:04,VALID,1004.37,VALID,0,VALID,94.4761,VALID,0,VALID,23.7796,VALID,15,VALID,0.213281,
2009-11-04, 01:18:04,VALID,1004.35,VALID,0,VALID,94.4608,VALID,0,VALID,23.7814,VALID,15,VALID,0.332812,
2009-11-04, 01:19:04,VALID,1004.38,VALID,0,VALID,94.4684,VALID,0,VALID,23.7407,VALID,15,VALID,0.36875,
2009-11-04, 01:20:04,VALID,1004.36,VALID,0,VALID,94.4608,VALID,0,VALID,23.7212,VALID,15,VALID,0.448047,
2009-11-04, 01:21:04,VALID,1004.34,VALID,0,VALID,94.4837,VALID,0,VALID,23.7212,VALID,15,VALID,0.391406,
2009-11-04, 01:22:04,VALID,1004.35,VALID,0,VALID,94.4837,VALID,0,VALID,23.723,VALID,15,VALID,0.524219,
2009-11-04, 01:23:04,VALID,1004.36,VALID,0,VALID,94.4913,VALID,0,VALID,23.7035,VALID,15,VALID,0.501953,
2009-11-04, 01:24:04,VALID,1004.32,VALID,0,VALID,94.5066,VALID,0,VALID,23.6841,VALID,15,VALID,0.482812,
2009-11-04, 01:25:04,VALID,1004.34,VALID,0,VALID,94.5142,VALID,0,VALID,23.6841,VALID,15,VALID,0.400391,
2009-11-04, 01:26:04,VALID,1004.32,VALID,0,VALID,94.5142,VALID,0,VALID,23.6646,VALID,15,VALID,0.414063,
2009-11-04, 01:27:04,VALID,1004.28,VALID,0,VALID,94.5295,VALID,0,VALID,23.6452,VALID,15,VALID,0.442187,
2009-11-04, 01:28:04,VALID,1004.25,VALID,0,VALID,94.5371,VALID,0,VALID,23.6062,VALID,15,VALID,0.460938,
2009-11-04, 01:29:04,VALID,1004.26,VALID,0,VALID,94.56,VALID,0,VALID,23.6062,VALID,15,VALID,0.261719,
2009-11-04, 01:30:04,VALID,1004.24,VALID,0,VALID,94.56,VALID,0,VALID,23.6062,VALID,15,VALID,0.265625,
2009-11-04, 01:31:04,VALID,1004.22,VALID,0,VALID,94.5752,VALID,0,VALID,23.6062,VALID,15,VALID,0.216406,
2009-11-04, 01:32:04,VALID,1004.22,VALID,0,VALID,94.6057,VALID,0,VALID,23.5868,VALID,15,VALID,0.185156,
2009-11-04, 01:33:04,VALID,1004.25,VALID,0,VALID,94.6057,VALID,0,VALID,23.5868,VALID,15,VALID,0.254687,
2009-11-04, 01:34:04,VALID,1004.26,VALID,0,VALID,94.6286,VALID,0,VALID,23.5868,VALID,15,VALID,0.1875,
2009-11-04, 01:35:04,VALID,1004.22,VALID,0,VALID,94.6591,VALID,0,VALID,23.5868,VALID,15,VALID,0.226172,
2009-11-04, 01:36:04,VALID,1004.25,VALID,0,VALID,94.6897,VALID,0,VALID,23.5868,VALID,15,VALID,0.0257812,
2009-11-04, 01:37:04,VALID,1004.26,VALID,0,VALID,94.7354,VALID,0,VALID,23.6062,VALID,15,VALID,0,
2009-11-04, 01:38:04,VALID,1004.23,VALID,0,VALID,94.766,VALID,0,VALID,23.6044,VALID,15,VALID,0.0015625,
2009-11-04, 01:39:04,VALID,1004.23,VALID,0,VALID,94.8194,VALID,0,VALID,23.6646,VALID,15,VALID,0.210156,
2009-11-04, 01:40:04,VALID,1004.22,VALID,0,VALID,94.8651,VALID,0,VALID,23.6841,VALID,15,VALID,0.154687,
2009-11-04, 01:41:04,VALID,1004.25,VALID,0,VALID,94.9109,VALID,0.100563,VALID,23.7017,VALID,15,VALID,0.127734,
2009-11-04, 01:42:04,VALID,1004.26,VALID,0,VALID,94.9338,VALID,0,VALID,23.7425,VALID,15,VALID,0.215625,
2009-11-04, 01:43:04,VALID,1004.25,VALID,0,VALID,94.9338,VALID,0,VALID,23.6823,VALID,15,VALID,0.396484,
2009-11-04, 01:44:04,VALID,1004.28,VALID,0,VALID,94.9033,VALID,0,VALID,23.6452,VALID,15,VALID,0.441797,
2009-11-04, 01:45:04,VALID,1004.27,VALID,0,VALID,94.8728,VALID,0,VALID,23.6452,VALID,15,VALID,0.230469,
2009-11-04, 01:46:04,VALID,1004.24,VALID,0,VALID,94.8575,VALID,0,VALID,23.6257,VALID,15,VALID,0.298438,
2009-11-04, 01:47:04,VALID,1004.26,VALID,0,VALID,94.8422,VALID,0,VALID,23.6044,VALID,15,VALID,0.432813,
2009-11-04, 01:48:04,VALID,1004.22,VALID,0,VALID,94.8499,VALID,0,VALID,23.6062,VALID,15,VALID,0.447656,
2009-11-04, 01:49:04,VALID,1004.2,VALID,0,VALID,94.8422,VALID,0,VALID,23.6062,VALID,15,VALID,0.343359,
2009-11-04, 01:50:04,VALID,1004.19,VALID,0,VALID,94.8499,VALID,0,VALID,23.5868,VALID,15,VALID,0.253516,
2009-11-04, 01:51:04,VALID,1004.18,VALID,0,VALID,94.8651,VALID,0,VALID,23.5868,VALID,15,VALID,0.150781,
2009-11-04, 01:52:04,VALID,1004.2,VALID,0,VALID,94.8804,VALID,0,VALID,23.6062,VALID,15,VALID,0,
2009-11-04, 01:53:04,VALID,1004.18,VALID,0,VALID,94.9185,VALID,0,VALID,23.6434,VALID,15,VALID,0.0984375,
2009-11-04, 01:54:04,VALID,1004.18,VALID,0,VALID,94.9872,VALID,0,VALID,23.6841,VALID,15,VALID,0.44375,
2009-11-04, 01:55:04,VALID,1004.18,VALID,0,VALID,95.0024,VALID,0,VALID,23.723,VALID,15,VALID,0.462891,
2009-11-04, 01:56:04,VALID,1004.15,VALID,0,VALID,95.0177,VALID,0,VALID,23.6823,VALID,15,VALID,0.475391,
2009-11-04, 01:57:04,VALID,1004.16,VALID,0,VALID,95.0253,VALID,0,VALID,23.723,VALID,15,VALID,0.530859,
2009-11-04, 01:58:04,VALID,1004.12,VALID,0,VALID,95.0406,VALID,0,VALID,23.7035,VALID,15,VALID,0.440625,
2009-11-04, 01:59:04,VALID,1004.07,VALID,0,VALID,95.0482,VALID,0,VALID,23.7035,VALID,15,VALID,0.387109,
2009-11-04, 02:00:04,VALID,1004.06,VALID,0,VALID,95.0482,VALID,0,VALID,23.6841,VALID,15,VALID,0.389844,
2009-11-04, 02:01:04,VALID,1004.08,VALID,0,VALID,95.0406,VALID,0,VALID,23.6841,VALID,15,VALID,0.447266,
2009-11-04, 02:02:04,VALID,1004.06,VALID,0,VALID,95.033,VALID,0,VALID,23.6434,VALID,15,VALID,0.451953,
2009-11-04, 02:03:04,VALID,1004.04,VALID,0,VALID,95.0177,VALID,0,VALID,23.6044,VALID,15,VALID,0.536328,
2009-11-04, 02:04:04,VALID,1004.02,VALID,0,VALID,95.0253,VALID,0,VALID,23.6257,VALID,15,VALID,0.496875,
2009-11-04, 02:05:04,VALID,1003.99,VALID,0,VALID,95.0253,VALID,0,VALID,23.6062,VALID,15,VALID,0.319531,
2009-11-04, 02:06:04,VALID,1003.98,VALID,0,VALID,95.0101,VALID,0,VALID,23.6062,VALID,15,VALID,0.216406,
2009-11-04, 02:07:04,VALID,1003.96,VALID,0,VALID,95.033,VALID,0,VALID,23.5868,VALID,15,VALID,0.176953,
2009-11-04, 02:08:04,VALID,1003.9,VALID,0,VALID,95.0101,VALID,0,VALID,23.546,VALID,15,VALID,0.325,
2009-11-04, 02:09:04,VALID,1003.91,VALID,0,VALID,95.0101,VALID,0,VALID,23.5673,VALID,15,VALID,0.421094,
2009-11-04, 02:10:04,VALID,1003.88,VALID,0,VALID,95.0177,VALID,0,VALID,23.5266,VALID,15,VALID,0.328906,
2009-11-04, 02:11:04,VALID,1003.88,VALID,0,VALID,95.0406,VALID,0,VALID,23.5673,VALID,15,VALID,0.493359,
2009-11-04, 02:12:04,VALID,1003.9,VALID,0,VALID,95.0482,VALID,0,VALID,23.5673,VALID,15,VALID,0.399219,
2009-11-04, 02:13:04,VALID,1003.85,VALID,0,VALID,95.0558,VALID,0,VALID,23.546,VALID,15,VALID,0.520312,
2009-11-04, 02:14:04,VALID,1003.86,VALID,0,VALID,95.0787,VALID,0,VALID,23.5284,VALID,15,VALID,0.507422,
2009-11-04, 02:15:04,VALID,1003.84,VALID,0,VALID,95.0635,VALID,0,VALID,23.5478,VALID,15,VALID,0.496484,
2009-11-04, 02:16:04,VALID,1003.8,VALID,0,VALID,95.0635,VALID,0,VALID,23.5673,VALID,15,VALID,0.459375,
2009-11-04, 02:17:04,VALID,1003.79,VALID,0,VALID,95.0787,VALID,0,VALID,23.5266,VALID,15,VALID,0.366016,
2009-11-04, 02:18:04,VALID,1003.78,VALID,0,VALID,95.1016,VALID,0,VALID,23.5478,VALID,15,VALID,0.230859,
2009-11-04, 02:19:04,VALID,1003.76,VALID,0,VALID,95.0787,VALID,0,VALID,23.5673,VALID,15,VALID,0.166797,
2009-11-04, 02:20:04,VALID,1003.75,VALID,0,VALID,95.1016,VALID,0,VALID,23.5868,VALID,15,VALID,0,
2009-11-04, 02:21:04,VALID,1003.75,VALID,0,VALID,95.155,VALID,0,VALID,23.6257,VALID,15,VALID,0,
2009-11-04, 02:22:04,VALID,1003.75,VALID,0,VALID,95.1627,VALID,0,VALID,23.6646,VALID,15,VALID,0,
2009-11-04, 02:23:04,VALID,1003.76,VALID,0,VALID,95.1932,VALID,0,VALID,23.6841,VALID,15,VALID,0,
2009-11-04, 02:24:04,VALID,1003.77,VALID,0,VALID,95.2237,VALID,0,VALID,23.7035,VALID,15,VALID,0,
2009-11-04, 02:25:04,VALID,1003.74,VALID,0,VALID,95.2008,VALID,0,VALID,23.6646,VALID,15,VALID,0.4125,
2009-11-04, 02:26:04,VALID,1003.72,VALID,0,VALID,95.1932,VALID,0,VALID,23.6239,VALID,15,VALID,0.295703,
2009-11-04, 02:27:04,VALID,1003.7,VALID,0,VALID,95.1855,VALID,0,VALID,23.6062,VALID,15,VALID,0.206641,
2009-11-04, 02:28:04,VALID,1003.68,VALID,0,VALID,95.1703,VALID,0,VALID,23.5673,VALID,15,VALID,0.350391,
2009-11-04, 02:29:04,VALID,1003.7,VALID,0,VALID,95.1703,VALID,0,VALID,23.546,VALID,15,VALID,0.287109,
2009-11-04, 02:30:04,VALID,1003.7,VALID,0,VALID,95.1245,VALID,0,VALID,23.5478,VALID,15,VALID,0.246875,
2009-11-04, 02:31:04,VALID,1003.72,VALID,0,VALID,95.1627,VALID,0,VALID,23.5673,VALID,15,VALID,0,
2009-11-04, 02:32:04,VALID,1003.72,VALID,0,VALID,95.1627,VALID,0,VALID,23.5868,VALID,15,VALID,0,
2009-11-04, 02:33:04,VALID,1003.74,VALID,0,VALID,95.1779,VALID,0,VALID,23.6062,VALID,15,VALID,0.338672,
2009-11-04, 02:34:04,VALID,1003.73,VALID,0,VALID,95.2161,VALID,0,VALID,23.6062,VALID,15,VALID,0.357031,
2009-11-04, 02:35:04,VALID,1003.73,VALID,0,VALID,95.2008,VALID,0,VALID,23.6257,VALID,15,VALID,0.0515625,
2009-11-04, 02:36:04,VALID,1003.69,VALID,0,VALID,95.2008,VALID,0,VALID,23.6062,VALID,15,VALID,0.137891,
2009-11-04, 02:37:04,VALID,1003.69,VALID,0,VALID,95.2084,VALID,0,VALID,23.6257,VALID,15,VALID,0.46875,
2009-11-04, 02:38:04,VALID,1003.67,VALID,0,VALID,95.1855,VALID,0,VALID,23.585,VALID,15,VALID,0.440625,
2009-11-04, 02:39:04,VALID,1003.66,VALID,0,VALID,95.1932,VALID,0,VALID,23.5655,VALID,15,VALID,0.355859,
2009-11-04, 02:40:04,VALID,1003.63,VALID,0,VALID,95.1855,VALID,0,VALID,23.5673,VALID,15,VALID,0.171484,
2009-11-04, 02:41:04,VALID,1003.65,VALID,0,VALID,95.2008,VALID,0,VALID,23.5655,VALID,15,VALID,0.0210938,
2009-11-04, 02:42:04,VALID,1003.66,VALID,0,VALID,95.2008,VALID,0,VALID,23.6062,VALID,15,VALID,0,
2009-11-04, 02:43:04,VALID,1003.67,VALID,0,VALID,95.2237,VALID,0,VALID,23.5868,VALID,15,VALID,0,
2009-11-04, 02:44:04,VALID,1003.71,VALID,0,VALID,95.2389,VALID,0,VALID,23.6452,VALID,15,VALID,0,
2009-11-04, 02:45:04,VALID,1003.75,VALID,0,VALID,95.2618,VALID,0,VALID,23.6841,VALID,15,VALID,0.130859,
2009-11-04, 02:46:04,VALID,1003.77,VALID,0,VALID,95.3,VALID,0,VALID,23.7619,VALID,14,VALID,0.323438,
2009-11-04, 02:47:04,VALID,1003.74,VALID,0,VALID,95.3305,VALID,0,VALID,23.8009,VALID,14,VALID,0,
2009-11-04, 02:48:04,VALID,1003.76,VALID,0,VALID,95.3305,VALID,0,VALID,23.8398,VALID,14,VALID,0,
2009-11-04, 02:49:04,VALID,1003.77,VALID,0,VALID,95.3457,VALID,0,VALID,23.8203,VALID,14,VALID,0,
2009-11-04, 02:50:04,VALID,1003.77,VALID,0,VALID,95.3381,VALID,0,VALID,23.7425,VALID,14,VALID,0,
2009-11-04, 02:51:04,VALID,1003.78,VALID,0,VALID,95.2923,VALID,0,VALID,23.6859,VALID,12,VALID,0.185937,
2009-11-04, 02:52:04,VALID,1003.78,VALID,0,VALID,95.2695,VALID,0,VALID,23.6257,VALID,7,VALID,0.534766,
2009-11-04, 02:53:04,VALID,1003.79,VALID,0,VALID,95.2466,VALID,0,VALID,23.6062,VALID,7,VALID,0.432422,
2009-11-04, 02:54:04,VALID,1003.77,VALID,0,VALID,95.2313,VALID,0,VALID,23.5478,VALID,7,VALID,0.248047,
2009-11-04, 02:55:04,VALID,1003.79,VALID,0,VALID,95.2008,VALID,0,VALID,23.5284,VALID,7,VALID,0.0609375,
2009-11-04, 02:56:04,VALID,1003.79,VALID,0,VALID,95.1779,VALID,0,VALID,23.5089,VALID,7,VALID,0.0410156,
2009-11-04, 02:57:04,VALID,1003.81,VALID,0,VALID,95.1779,VALID,0,VALID,23.4894,VALID,7,VALID,0,
2009-11-04, 02:58:04,VALID,1003.83,VALID,0,VALID,95.1779,VALID,0,VALID,23.4877,VALID,7,VALID,0,
2009-11-04, 02:59:04,VALID,1003.86,VALID,0,VALID,95.1779,VALID,0,VALID,23.5089,VALID,7,VALID,0,
2009-11-04, 03:00:04,VALID,1003.85,VALID,0,VALID,95.1779,VALID,0,VALID,23.5071,VALID,7,VALID,0,
2009-11-04, 03:01:04,VALID,1003.87,VALID,0,VALID,95.1779,VALID,0,VALID,23.5478,VALID,7,VALID,0,
2009-11-04, 03:02:04,VALID,1003.88,VALID,0,VALID,95.2084,VALID,0,VALID,23.6062,VALID,7,VALID,0,
2009-11-04, 03:03:04,VALID,1003.87,VALID,0,VALID,95.2389,VALID,0,VALID,23.6257,VALID,7,VALID,0,
2009-11-04, 03:04:04,VALID,1003.89,VALID,0,VALID,95.2695,VALID,0,VALID,23.6239,VALID,7,VALID,0,
2009-11-04, 03:05:04,VALID,1003.85,VALID,0,VALID,95.2771,VALID,0,VALID,23.6452,VALID,7,VALID,0.2875,
2009-11-04, 03:06:04,VALID,1003.83,VALID,0,VALID,95.2847,VALID,0,VALID,23.6257,VALID,7,VALID,0.367188,
2009-11-04, 03:07:04,VALID,1003.86,VALID,0,VALID,95.2618,VALID,0,VALID,23.585,VALID,7,VALID,0.530078,
2009-11-04, 03:08:04,VALID,1003.85,VALID,0,VALID,95.2389,VALID,0,VALID,23.5673,VALID,7,VALID,0.514844,
2009-11-04, 03:09:04,VALID,1003.85,VALID,0,VALID,95.2542,VALID,0,VALID,23.5673,VALID,7,VALID,0.595312,
2009-11-04, 03:10:04,VALID,1003.86,VALID,0,VALID,95.2695,VALID,0,VALID,23.5655,VALID,7,VALID,0.49375,
2009-11-04, 03:11:04,VALID,1003.86,VALID,0,VALID,95.2847,VALID,0,VALID,23.6257,VALID,7,VALID,0.108984,
2009-11-04, 03:12:04,VALID,1003.87,VALID,0,VALID,95.3229,VALID,0,VALID,23.6628,VALID,359,VALID,0.203906,
2009-11-04, 03:13:04,VALID,1003.87,VALID,0,VALID,95.3534,VALID,0,VALID,23.7035,VALID,358,VALID,0.402344,
2009-11-04, 03:14:04,VALID,1003.89,VALID,0,VALID,95.3305,VALID,0,VALID,23.7035,VALID,358,VALID,0.453906,
2009-11-04, 03:15:04,VALID,1003.85,VALID,0,VALID,95.3305,VALID,0,VALID,23.6452,VALID,358,VALID,0.547656,
2009-11-04, 03:16:04,VALID,1003.88,VALID,0,VALID,95.3076,VALID,0,VALID,23.6257,VALID,358,VALID,0.452734,
2009-11-04, 03:17:04,VALID,1003.89,VALID,0,VALID,95.2847,VALID,0,VALID,23.5478,VALID,358,VALID,0.59375,
2009-11-04, 03:18:04,VALID,1003.93,VALID,0,VALID,95.2618,VALID,0,VALID,23.5089,VALID,358,VALID,0.585547,
2009-11-04, 03:19:04,VALID,1003.93,VALID,0,VALID,95.2542,VALID,0,VALID,23.4894,VALID,358,VALID,0.730859,
2009-11-04, 03:20:04,VALID,1003.92,VALID,0,VALID,95.2542,VALID,0,VALID,23.5089,VALID,358,VALID,0.557422,
2009-11-04, 03:21:04,VALID,1003.9,VALID,0,VALID,95.2466,VALID,0,VALID,23.4682,VALID,358,VALID,0.212891,
2009-11-04, 03:22:04,VALID,1003.87,VALID,0,VALID,95.2466,VALID,0,VALID,23.5089,VALID,355,VALID,0.0917969,
2009-11-04, 03:23:04,VALID,1003.86,VALID,0,VALID,95.2618,VALID,0,VALID,23.5089,VALID,2,VALID,0.272266,
2009-11-04, 03:24:04,VALID,1003.84,VALID,0,VALID,95.2695,VALID,0,VALID,23.5478,VALID,2,VALID,0,
2009-11-04, 03:25:04,VALID,1003.82,VALID,0,VALID,95.2847,VALID,0,VALID,23.5478,VALID,2,VALID,0,
2009-11-04, 03:26:04,VALID,1003.85,VALID,0,VALID,95.2847,VALID,0,VALID,23.5868,VALID,2,VALID,0,
2009-11-04, 03:27:04,VALID,1003.84,VALID,0,VALID,95.2771,VALID,0,VALID,23.5673,VALID,2,VALID,0,
2009-11-04, 03:28:04,VALID,1003.85,VALID,0,VALID,95.3076,VALID,0,VALID,23.5868,VALID,2,VALID,0,
2009-11-04, 03:29:04,VALID,1003.83,VALID,0,VALID,95.2923,VALID,0,VALID,23.5673,VALID,2,VALID,0,
2009-11-04, 03:30:04,VALID,1003.85,VALID,0,VALID,95.2923,VALID,0,VALID,23.5673,VALID,2,VALID,0,
2009-11-04, 03:31:04,VALID,1003.85,VALID,0,VALID,95.3,VALID,0,VALID,23.5868,VALID,2,VALID,0,
2009-11-04, 03:32:04,VALID,1003.82,VALID,0,VALID,95.3076,VALID,0,VALID,23.5868,VALID,2,VALID,0.0691406,
2009-11-04, 03:33:04,VALID,1003.82,VALID,0,VALID,95.3152,VALID,0,VALID,23.6257,VALID,4,VALID,0.464844,
2009-11-04, 03:34:04,VALID,1003.8,VALID,0,VALID,95.3229,VALID,0,VALID,23.6257,VALID,4,VALID,0.448047,
2009-11-04, 03:35:04,VALID,1003.8,VALID,0,VALID,95.2923,VALID,0,VALID,23.5868,VALID,4,VALID,0.280859,
2009-11-04, 03:36:04,VALID,1003.77,VALID,0,VALID,95.2923,VALID,0,VALID,23.546,VALID,4,VALID,0.398438,
2009-11-04, 03:37:04,VALID,1003.82,VALID,0,VALID,95.2771,VALID,0,VALID,23.5284,VALID,4,VALID,0.377344,
2009-11-04, 03:38:04,VALID,1003.82,VALID,0,VALID,95.2542,VALID,0,VALID,23.4877,VALID,4,VALID,0.136328,
2009-11-04, 03:39:04,VALID,1003.81,VALID,0,VALID,95.2313,VALID,0,VALID,23.5071,VALID,4,VALID,0,
2009-11-04, 03:40:04,VALID,1003.84,VALID,0,VALID,95.2466,VALID,0.100563,VALID,23.5478,VALID,4,VALID,0.323438,
2009-11-04, 03:41:04,VALID,1003.82,VALID,0,VALID,95.2771,VALID,0,VALID,23.5673,VALID,4,VALID,0.355078,
2009-11-04, 03:42:04,VALID,1003.81,VALID,0,VALID,95.2542,VALID,0,VALID,23.5673,VALID,4,VALID,0.169922,
2009-11-04, 03:43:04,VALID,1003.78,VALID,0,VALID,95.2695,VALID,0,VALID,23.5673,VALID,4,VALID,0,
2009-11-04, 03:44:04,VALID,1003.74,VALID,0,VALID,95.2618,VALID,0,VALID,23.5655,VALID,4,VALID,0.405859,
2009-11-04, 03:45:04,VALID,1003.74,VALID,0,VALID,95.2695,VALID,0,VALID,23.6044,VALID,4,VALID,0.345703,
2009-11-04, 03:46:04,VALID,1003.73,VALID,0,VALID,95.2847,VALID,0,VALID,23.6257,VALID,4,VALID,0.483203,
2009-11-04, 03:47:04,VALID,1003.71,VALID,0,VALID,95.2923,VALID,0,VALID,23.6452,VALID,359,VALID,0.516797,
2009-11-04, 03:48:04,VALID,1003.7,VALID,0,VALID,95.2695,VALID,0,VALID,23.6257,VALID,359,VALID,0.404687,
2009-11-04, 03:49:04,VALID,1003.68,VALID,0,VALID,95.2695,VALID,0,VALID,23.6257,VALID,359,VALID,0.358594,
2009-11-04, 03:50:04,VALID,1003.67,VALID,0,VALID,95.2618,VALID,0,VALID,23.6239,VALID,358,VALID,0.525,
2009-11-04, 03:51:04,VALID,1003.69,VALID,0,VALID,95.2847,VALID,0,VALID,23.6434,VALID,358,VALID,0.26875,
2009-11-04, 03:52:04,VALID,1003.7,VALID,0,VALID,95.2542,VALID,0,VALID,23.6239,VALID,358,VALID,0.266797,